Location: Pedro
(43.9050°N, 104.3408°W)
Time: 00:40:36
(UTC+00:00)

X-37B - Visible Passes

Search period start: 11 June 2023 00:00
Search period end: 21 June 2023 00:00
Orbit: 277 x 277 km, 45.0° (Epoch: 01 November)

Date Brightness Start Highest point End Pass type
(mag) Time Alt. Az. Time Alt. Az. Time Alt. Az.
11 Jun 1.2 09:44:27 25° S 09:44:55 27° SSE 09:47:05 10° E visible
12 Jun 0.4 09:44:49 32° SSW 09:45:31 44° SSE 09:47:53 10° E visible
13 Jun -0.2 09:45:11 30° WSW 09:46:10 70° SSE 09:48:37 10° E visible
14 Jun -0.1 09:45:32 24° W 09:46:51 83° N 09:49:19 10° ENE visible
15 Jun 0.2 09:45:54 18° W 09:47:34 67° N 09:50:01 10° ENE visible
16 Jun 3.0 08:16:16 12° E 08:16:16 12° E 08:16:29 10° E visible
16 Jun 0.3 09:46:18 14° W 09:48:17 62° N 09:50:43 10° E visible
17 Jun 2.8 08:16:44 14° ENE 08:16:44 14° ENE 08:17:12 10° ENE visible
17 Jun 0.2 09:46:46 12° WNW 09:49:00 66° N 09:51:27 10° E visible
18 Jun 2.7 08:17:20 15° ENE 08:17:20 15° ENE 08:17:53 10° ENE visible
18 Jun -0.1 09:47:22 11° WNW 09:49:43 80° NNE 09:52:10 10° E visible
19 Jun 2.8 08:18:09 14° E 08:18:09 14° E 08:18:36 10° E visible
19 Jun -0.3 09:48:12 12° W 09:50:24 73° SSW 09:52:51 10° ESE visible
20 Jun 0.1 09:49:26 17° W 09:51:03 46° SSW 09:53:26 10° SE visible
